Regional Weather Roundup
Issued by NWS

Home | Current Version | Previous Version | Graphics & Text | Print | Product List | Glossary Off
Versions: 1 2 3 4 5 6 7 8 9 10 11 12 13 14 15 16 17 18 19 20 21 22 23 24 25 26 27 28 29 30 31 32 33 34 35 36 37 38 39 40 41 42 43 44 45 46 47 48 49 50

000
ASUS43 KMKX 300017
RWRWI

WISCONSIN REGIONAL WEATHER ROUNDUP
NATIONAL WEATHER SERVICE MILWAUKEE/SULLIVAN WI
700 PM CDT FRI MAY 29 2015

NOTE: "FAIR" INDICATES FEW OR NO CLOUDS BELOW 12,000 FEET WITH NO
SIGNIFICANT WEATHER AND/OR OBSTRUCTIONS TO VISIBILITY.

WIZ001-002-006>008-014>016-023>028-300100-
NORTHWEST WISCONSIN

CITY           SKY/WX    TMP DP  RH WIND       PRES   REMARKS
SUPERIOR ARPT  CLOUDY    56  49  77 N8G17     30.00R
ASHLAND        LGT RAIN  58  58 100 N6        29.97R
6HR MIN TEMP:  58; 6HR MAX TEMP:  71; 6HR PCP:  0.05;

HAYWARD        LGT RAIN  59  56  89 N10       29.96R
6HR MIN TEMP:  59; 6HR MAX TEMP:  67; 6HR PCP:  0.18;

SIREN          DRIZZLE   57  55  94 N13       29.96R
CUMBERLAND     DRIZZLE   61  59  94 N10G20    29.93S
RICE LAKE      LGT RAIN  63  60  90 N9        29.92F
CHETEK         RAIN      63  63  98 N6        29.90F
LADYSMITH      RAIN      64  62  94 N9        29.93F
EAU CLAIRE     CLOUDY    66  63  90 N6        29.88R
MENOMONIE      CLOUDY    65  64  94 N8        29.89R
NEW RICHMOND   RAIN      63  62  97 N14       29.92R
OSCEOLA        LGT RAIN  61  61 100 N14G20    29.96R
$$

WIZ003>005-009-010-017-018-300100-
NORTH CENTRAL WISCONSIN

CITY           SKY/WX    TMP DP  RH WIND       PRES   REMARKS
MANITOWISH WTR DRIZZLE   59  59 100 N9G17     29.94R
ARBOR VITAE    RAIN      62  60  94 N9        29.93R
WOODRUFF       RAIN      62  60  94 N9        29.93R
RHINELANDER    LGT RAIN  62  59  90 N9        29.93R
6HR MIN TEMP:  62; 6HR MAX TEMP:  72; 6HR PCP:  0.01;

EAGLE RIVER    HVY RAIN  60  59  97 N7        29.92R
LAND O LAKES   RAIN      61  60  94 NW6       29.94R
PHILLIPS       RAIN      62  61  97 N5        29.92R
TOMAHAWK       RAIN      65  62  90 NW8       29.91R
MEDFORD        HVY RAIN  65  63  93 NW13      29.91R
MERRILL        LGT RAIN  67  66  99 CALM      29.90S
$$

WIZ029-030-035-036-043>047-300100-
CENTRAL WISCONSIN

CITY           SKY/WX    TMP DP  RH WIND       PRES   REMARKS
WAUSAU         LGT RAIN  66  65  96 SW5       29.89R FOG
6HR MIN TEMP:  65; 6HR MAX TEMP:  77; 6HR PCP:  0.46;

MOSINEE        CLOUDY    66  64  94 W5        29.91R
MARSHFIELD     LGT RAIN  67  63  87 W3        29.89S
6HR MIN TEMP:  67; 6HR MAX TEMP:  77; 6HR PCP:  0.22;

STEVENS POINT  CLOUDY    63  61  96 W5        29.91R
WAUPACA        PTSUNNY   77  66  68 S5        29.85R
WAUTOMA        NOT AVBL
WISC RAPIDS    CLOUDY    66  62  87 N7        29.89F
6HR MIN TEMP:  64; 6HR MAX TEMP:  80; 6HR PCP:  0.56;

CAMP DOUGLAS   LGT RAIN  70  70 100 N9        29.86S
$$

WIZ011>013-019>022-031-037>040-048>050-300100-
NORTHEAST WISCONSIN

CITY           SKY/WX    TMP DP  RH WIND       PRES   REMARKS
ANTIGO         RAIN      64  64  99 W3        29.89R
SHAWANO        LGT RAIN  73  67  81 CALM      29.84S
OCONTO         PTSUNNY   72  67  83 S8        29.83F
STURGEON BAY   CLOUDY    72  63  73 S14       29.87F
6HR MIN TEMP:  66; 6HR MAX TEMP:  73;

GREEN BAY      MOSUNNY   74  66  76 S9        29.85F
6HR MIN TEMP:  74; 6HR MAX TEMP:  80;

MANITOWOC      NOT AVBL
APPLETON       PTSUNNY   75  64  69 S7        29.86S
CLINTONVILLE   DRIZZLE   73  64  73 S7        29.84S
OSHKOSH        PTSUNNY   75  66  73 SW8       29.85F
6HR MIN TEMP:  68; 6HR MAX TEMP:  80; 6HR PCP:  0.32;

$$

WIZ032>034-041-042-053>061-300100-
SOUTHWEST WISCONSIN

CITY           SKY/WX    TMP DP  RH WIND       PRES   REMARKS
LA CROSSE      CLOUDY    69  65  86 N7        29.86F
6HR MIN TEMP:  67; 6HR MAX TEMP:  79; 6HR PCP:  1.37;

SPARTA         CLOUDY    68  65  90 N7        29.90R
VIROQUA        CLOUDY    68  62  82 SW9       29.88S VSB 3/4
BOSCOBEL       CLOUDY    79  66  64 SW3       29.85S HX  81
6HR MIN TEMP:  77; 6HR MAX TEMP:  83;

PRAIRIE DU CHI CLOUDY    77  61  56 SW12      29.85S
PLATTEVILLE    CLOUDY    75  68  78 S6        29.88S
$$

WIZ056-057-062-063-064-067-068-300100-
SOUTH CENTRAL WISCONSIN

CITY           SKY/WX    TMP DP  RH WIND       PRES   REMARKS
REEDSBURG      CLOUDY    76  66  72 SW6       29.86R
BARABOO/DELLS  CLOUDY    75  64  68 SW5       29.86F
LONE ROCK      NOT AVBL
MINERAL POINT  PTSUNNY   75  68  78 S7        29.89S
MADISON        CLOUDY    75  66  73 SW3       29.87S
6HR MIN TEMP:  75; 6HR MAX TEMP:  79; 6HR PCP: TRACE;

MIDDLETON      CLOUDY    76  66  72 W6        29.88S
WATERTOWN      PTSUNNY  N/A N/A N/A NW3       29.87S
MONROE         CLOUDY    72  64  78 SW5       29.90S
JANESVILLE     PTSUNNY   79  66  65 SW9       29.88S HX  81
$$

WIZ051-052-058>065-066-070>072-300100-
SOUTHEAST WISCONSIN

CITY           SKY/WX    TMP DP  RH WIND       PRES   REMARKS
MILWAUKEE      PTSUNNY   73  67  81 VRB7      29.88S HAZE
6HR MIN TEMP:  71; 6HR MAX TEMP:  77; 6HR PCP:  0.11;

WAUKESHA       MOSUNNY   72  66  83 SW9       29.90S
MILWAUKEE/TIMM SUNNY     72  64  78 SW3       29.88F
RACINE         MOSUNNY   67  62  84 CALM      29.91S
6HR MIN TEMP:  67; 6HR MAX TEMP:  74; 6HR PCP:  0.10;

BURLINGTON     MOSUNNY   72  66  80 SW8       29.89S
KENOSHA        MOSUNNY   77  67  71 W12       29.90R
6HR MIN TEMP:  72; 6HR MAX TEMP:  82; 6HR PCP:  0.07;

FOND DU LAC    PTSUNNY   72  68  87 S7        29.86S
6HR MIN TEMP:  71; 6HR MAX TEMP:  80; 6HR PCP:  0.03;

SHEBOYGAN      PTSUNNY   68  67  96 S6        29.87F FOG
6HR MIN TEMP:  68; 6HR MAX TEMP:  75; 6HR PCP:  0.28;

WEST BEND      PTSUNNY   70  68  94 CALM      29.88S
JUNEAU         CLOUDY    69  65  89 CALM      29.88F
$$

LSZ147-162-300100-
LAKE SUPERIOR

STATION/POSITION TIME  TEMP    WIND        PRES    WAVE
                       AIR SEA DIR/SP/G            HT/PER
                 (UTC) (F)     (DEG/KT/KT) (MB)    (FT/S)
W MID LAKE BUOY  2250   44 37  330/  8/ 10   N/A     1
DEVILS ISLAND    2300   58      50/ 10/ 11   N/A
PORT WING        2300   51     290/  2/  4   N/A
SAXON HARBOR     2340   56        CALM       N/A
$$

LMZ867-665-643>646-300100-
LAKE MICHIGAN

STATION/POSITION TIME  TEMP    WIND        PRES    WAVE
                       AIR SEA DIR/SP/G            HT/PER
                 (UTC) (F)     (DEG/KT/KT) (MB)    (FT/S)
CHAMBERS ISLAND  2300   71     160/  7/ 14   N/A
N MID LAKE BUOY  2250   43 37  200/  8/ 10   N/A     1/ 3
NORTHPORT PIER   2300   59     140/  9/ 15   N/A
SISTER BAY       2318   72     190/ 16/ 19   N/A
ALGOMA LAKESHORE 2308          210/ 12/ 15   N/A
KEWAUNEE LAKESHO 2300   53     180/ 15/ 16   N/A
SHEBOYGAN LAKESH 2300   59     170/ 16/ 17   N/A
PORT WASHINGTON  2340   58     120/  3/  3   N/A
ATWATER BUOY     2300   60     180/  6/  8   N/A
MILWAUKEE LAKESH 2300   66     210/  9/ 12   N/A
S MID LAKE BUOY  2250   47 38  130/ 10/ 10   N/A     0
KENOSHA   LAKESH 2300   62     170/  8/ 11   N/A
$$

TC  - TEMPERATURE IN CELSIUS
VSB - VISIBILITY IN STATUTE MILES
WCI - WIND CHILL INDEX
HX  - HEAT INDEX




USA.gov is the U.S. government's official web portal to all federal, state and local government web resources and services.